Vertical_Velocity
-4 -1 3 1 1 -1 5 -12 10 -20 2 -6 -5 -2 -5 -2 -1 -1 -1 -1 1 -1 -2 6 2 5 3 3 2 -1 3 3 5 -6 13 -3 -19 8 -1 5 -0 4 -4 1
-6 -2 3 2 -2 1 -0 -2 3 4 -11 -1 -7 -3 -0 -3 0 -2 -2 0 -1 0 -1 0 4 8 0 4 -2 4 7 5 2 10 -3 -5 8 2 3 9 -10 6 5 -8
-11 1 3 10 -12 -3 -3 0 1 5 -24 -2 -4 -1 -4 -4 4 -4 -0 -1 -2 -2 1 -4 -1 -1 6 -2 4 2 6 8 5 -0 3 -2 6 -4 9 -6 -2 3 1 -0
-4 4 9 -30 -1 -0 1 -5 -1 3 -4 -2 -3 -6 -1 -2 1 2 0 -2 -2 -1 -2 2 -2 -4 3 -3 -2 1 -4 0 1 5 -2 3 5 1 -2 -0 4 -5 2 0
3 1 -14 -5 -1 5 11 -18 3 3 -2 -1 -1 1 -17 -4 -2 -4 3 4 3 3 4 -3 3 1 11 -7 8 -1 1 -5 1 -3 4 -1 -0 -1 4 -3 1 -1 -1 -4
7 8 -1 6 -3 0 3 -9 3 4 0 2 -2 4 -2 -2 -0 0 4 1 -1 6 -0 4 3 0 1 2 11 3 5 3 -3 5 2 1 4 -0 -2 5 -3 -2 -1 0
-1 -0 -1 3 -0 2 14 8 -0 5 2 1 5 4 -2 -6 -2 0 4 3 5 5 -1 6 -0 4 -2 -2 -2 -1 -1 2 4 2 2 3 1 2 -2 -2 -1 0 1 -1
3 8 8 2 -5 -3 10 -13 5 -0 -2 0 -0 -2 2 -2 3 1 -1 3 3 7 -3 1 6 7 3 -1 4 3 -6 -1 3 -0 1 1 -1 -2 -3 -1 0 1 -1 -3
7 9 5 2 5 1 5 6 -3 5 -3 2 1 2 1 0 2 2 2 0 7 5 2 1 4 11 -6 4 5 1 -3 0 3 -0 -4 0 -1 0 -0 -1 -1 -0 -1 -0
4 0 2 2 -0 3 2 3 1 5 -1 1 2 2 3 2 2 2 5 -1 5 5 6 6 1 5 11 -5 2 3 1 -1 -2 0 -0 0 -0 -0 -0 -1 -0 -1 -2 0
-2 -4 -7 -3 -2 3 -1 3 -2 1 4 -2 3 3 6 1 -2 6 1 4 10 5 -0 2 5 1 4 3 -0 -2 2 1 -0 -0 0 1 1 1 0 -1 -1 0 -1 -3
0 3 8 -1 0 4 -1 1 1 4 2 -5 -1 7 13 5 6 6 9 9 2 9 7 1 6 5 3 3 3 -1 -3 -2 -0 0 2 1 1 -0 -1 0 0 -3 -3 -2
6 4 3 7 7 4 4 3 3 2 8 9 3 -4 9 3 4 8 8 9 11 8 7 7 7 4 7 6 5 2 2 1 1 2 2 -1 -1 -1 -2 -2 -3 -2 -1 -2
2 -0 -6 -6 1 8 2 8 10 5 4 7 20 5 -8 -8 4 2 0 12 2 2 3 6 3 0 4 5 3 3 0 -2 -1 -1 -2 -1 0 -0 0 -1 -0 -1 -1 -1
-4 3 8 6 5 1 3 3 -7 -4 6 -5 3 9 15 7 -2 4 9 1 -1 -4 -3 -1 -1 -2 -2 -3 0 2 2 1 -0 -2 -0 2 -1 -4 -2 1 1 1 2 1
2 2 1 -1 0 -1 2 -5 -1 1 -3 2 -0 -3 8 6 9 1 2 6 4 3 3 2 4 2 -4 -7 0 3 2 2 2 1 -0 -4 -1 1 -1 2 2 -1 -1 -2
-3 -11 -6 -3 -1 -0 2 -3 2 6 -0 -0 2 4 -0 1 2 4 1 0 -0 -1 0 -0 -5 -2 4 -1 0 2 -1 -4 -4 -3 0 1 1 -2 -2 2 2 -0 1 1
4 4 3 3 1 -1 -2 -1 3 4 -3 1 2 -0 -2 -2 -1 2 2 0 -0 -3 -2 -1 -2 -1 -2 3 2 2 4 2 -0 -0 -1 -0 -1 -2 -3 -3 -4 -1 -1 -2
-0 1 1 0 -0 1 -1 -2 -0 2 2 -1 -1 -3 -0 -0 1 -1 -0 -2 -1 1 -1 -1 -1 -2 -0 -1 -2 4 4 0 -2 -1 1 1 -1 0 2 1 -0 -2 -1 -1
-0 0 1 1 -2 -2 -1 3 4 1 1 -2 0 1 1 -0 1 1 2 -1 -1 -2 -2 2 1 -2 1 2 1 -3 0 -0 -0 -1 -2 -1 -1 -1 -1 -2 -1 -2 -1 0
-0 -0 0 -1 0 1 0 -0 1 1 -0 -2 0 1 -1 -2 -4 -3 -0 -1 -1 0 -2 -2 2 -1 -2 1 2 0 -0 -2 -2 2 -2 -1 -1 0 0 -0 -1 -3 -3 0
0 -1 -1 0 0 -0 -1 -0 -2 -2 -2 1 2 0 0 -3 1 3 -0 1 2 1 1 -0 1 3 3 1 -0 -1 0 -1 -3 -2 -2 -0 -0 -1 -2 -0 0 -4 -0 0
0 1 1 -1 -2 -0 2 2 0 1 2 0 -2 -4 -0 2 0 -3 0 1 2 1 -0 0 1 1 1 3 2 -0 -3 -2 -2 -1 1 -0 0 1 -1 2 -2 -1 -0 -1
-0 0 0 0 1 1 -1 -2 0 1 1 -1 -0 -1 -1 -3 2 -1 2 -0 0 1 0 -0 -1 0 -0 0 -4 -1 1 -0 2 1 1 2 2 -5 1 -1 -1 -1 -1 -0
1 0 0 1 0 -1 -0 -0 -2 -1 -0 -0 -0 2 2 2 2 0 1 1 1 1 2 1 -1 2 -1 -1 2 2 1 -1 -0 2 -0 -2 -3 2 0 -0 -1 -0 -1 1
-1 -2 -1 -1 -0 -0 1 -0 -0 0 -1 -1 1 -0 3 2 1 1 1 -1 -1 -1 1 -1 0 2 0 1 1 -0 -0 1 0 -1 -5 1 2 -0 -1 -1 -0 0 0 -1
1 1 0 1 1 -0 -1 -0 -1 -1 0 0 1 1 -0 -0 1 1 1 1 2 2 1 0 -0 -1 -0 -1 -2 -2 1 -1 -2 -1 2 1 0 -1 -1 -0 -0 0 -0 -0
Height
1439 1438 1437 1436 1437 1439 1444 1439 1439 1422 1414 1422 1419 1418 1414 1414 1413 1412 1409 1409 1410 1411 1415 1416 1417 1420 1424 1431 1438 1446 1453 1460 1464 1468 1478 1476 1494 1495 1498 1503 1505 1507 1509 1514
1433 1433 1434 1432 1428 1429 1428 1428 1423 1418 1400 1416 1415 1415 1409 1408 1408 1405 1404 1404 1407 1409 1411 1415 1418 1421 1425 1431 1439 1446 1452 1457 1462 1467 1470 1483 1490 1491 1497 1496 1506 1507 1508 1510
1430 1427 1429 1427 1412 1418 1415 1412 1414 1405 1398 1408 1406 1405 1402 1401 1400 1398 1397 1399 1401 1403 1407 1411 1417 1421 1424 1431 1437 1444 1451 1457 1461 1466 1473 1482 1487 1489 1494 1496 1505 1506 1508 1510
1430 1426 1427 1398 1401 1404 1402 1400 1400 1396 1396 1398 1397 1394 1392 1393 1392 1391 1390 1391 1394 1398 1404 1408 1415 1421 1424 1429 1435 1441 1450 1457 1463 1468 1474 1481 1483 1488 1492 1498 1501 1506 1509 1509
1430 1414 1405 1399 1405 1411 1408 1396 1405 1404 1401 1400 1397 1390 1381 1385 1382 1380 1382 1383 1388 1393 1399 1405 1410 1417 1422 1427 1431 1440 1448 1458 1464 1469 1474 1478 1483 1488 1493 1498 1501 1504 1506 1508
1421 1420 1407 1426 1423 1422 1420 1399 1412 1412 1408 1406 1401 1387 1377 1380 1379 1376 1377 1379 1384 1389 1395 1401 1408 1413 1421 1428 1436 1442 1450 1453 1464 1469 1473 1480 1484 1488 1493 1497 1499 1503 1504 1506
1416 1413 1401 1435 1426 1416 1404 1409 1416 1417 1412 1407 1402 1394 1387 1381 1377 1374 1375 1378 1381 1387 1393 1400 1406 1412 1419 1428 1435 1442 1450 1457 1464 1469 1476 1481 1484 1489 1492 1497 1499 1501 1502 1503
1403 1403 1400 1436 1425 1428 1436 1427 1421 1415 1410 1404 1398 1390 1386 1381 1377 1375 1376 1377 1384 1384 1392 1400 1409 1414 1419 1427 1434 1441 1449 1460 1464 1470 1476 1480 1483 1488 1491 1495 1497 1498 1498 1499
1444 1441 1449 1447 1444 1441 1436 1428 1421 1412 1407 1401 1393 1389 1384 1382 1379 1378 1378 1381 1384 1388 1391 1402 1411 1416 1420 1429 1436 1442 1449 1460 1464 1469 1475 1480 1483 1487 1489 1492 1493 1494 1495 1497
1448 1447 1447 1445 1440 1437 1433 1427 1419 1412 1404 1399 1393 1389 1384 1381 1381 1382 1382 1384 1387 1390 1396 1401 1411 1419 1424 1430 1438 1444 1451 1458 1466 1471 1475 1479 1482 1484 1486 1487 1489 1491 1492 1493
1451 1451 1444 1443 1444 1440 1433 1426 1417 1411 1404 1399 1394 1390 1385 1383 1384 1384 1386 1387 1391 1392 1399 1406 1411 1420 1428 1433 1440 1447 1454 1460 1466 1471 1474 1477 1479 1480 1482 1484 1486 1487 1488 1489
1462 1462 1460 1454 1450 1443 1435 1428 1422 1414 1407 1401 1398 1395 1388 1386 1388 1389 1389 1392 1395 1398 1402 1411 1417 1424 1432 1438 1444 1449 1455 1461 1466 1470 1472 1473 1475 1477 1479 1481 1482 1483 1484 1485
1469 1462 1461 1456 1452 1445 1439 1431 1425 1418 1413 1409 1401 1398 1395 1390 1393 1393 1394 1396 1399 1404 1410 1417 1424 1431 1437 1443 1448 1453 1457 1461 1464 1467 1469 1471 1474 1475 1476 1478 1479 1480 1481 1482
1467 1463 1461 1456 1455 1448 1440 1435 1430 1425 1422 1415 1410 1405 1403 1401 1402 1403 1404 1404 1404 1410 1418 1425 1430 1435 1442 1447 1451 1454 1457 1460 1463 1465 1468 1470 1472 1473 1474 1476 1477 1478 1478 1478
1472 1469 1466 1462 1456 1449 1444 1437 1433 1430 1424 1420 1417 1416 1412 1410 1411 1413 1414 1418 1421 1425 1429 1434 1437 1441 1444 1447 1450 1453 1456 1459 1461 1464 1466 1468 1469 1471 1473 1474 1474 1475 1475 1475
1473 1470 1467 1461 1456 1452 1448 1442 1444 1440 1436 1432 1430 1427 1424 1420 1419 1421 1424 1426 1427 1430 1433 1436 1440 1443 1445 1449 1453 1454 1456 1458 1460 1462 1464 1466 1468 1469 1470 1472 1471 1471 1472 1472
1472 1467 1464 1461 1458 1455 1452 1452 1452 1447 1442 1439 1438 1435 1433 1431 1430 1429 1430 1432 1434 1436 1438 1440 1442 1446 1448 1451 1454 1454 1455 1456 1459 1461 1463 1465 1465 1466 1469 1470 1469 1469 1470 1470
1476 1473 1470 1467 1464 1462 1459 1457 1455 1449 1446 1445 1442 1440 1438 1437 1437 1436 1435 1436 1438 1439 1441 1443 1444 1447 1450 1452 1453 1454 1454 1454 1456 1458 1460 1462 1463 1465 1466 1467 1467 1467 1467 1468
1477 1474 1472 1469 1466 1464 1462 1459 1456 1452 1449 1447 1445 1443 1442 1442 1440 1440 1440 1440 1441 1442 1443 1444 1446 1447 1449 1451 1452 1453 1452 1452 1454 1457 1459 1460 1462 1463 1464 1463 1464 1465 1465 1466
1478 1476 1473 1470 1467 1465 1462 1460 1457 1453 1450 1448 1448 1447 1445 1444 1443 1442 1442 1442 1443 1443 1444 1445 1446 1447 1449 1449 1449 1451 1452 1452 1454 1456 1457 1460 1461 1462 1460 1460 1461 1463 1464 1464
1478 1475 1473 1470 1467 1465 1462 1459 1456 1453 1452 1451 1450 1448 1446 1445 1445 1445 1445 1444 1444 1445 1445 1446 1446 1446 1447 1448 1448 1449 1450 1451 1454 1455 1456 1458 1459 1458 1457 1457 1458 1460 1462 1462
1478 1475 1473 1471 1468 1466 1464 1461 1458 1457 1454 1453 1451 1449 1447 1446 1446 1444 1444 1444 1444 1444 1443 1444 1445 1445 1445 1446 1446 1448 1449 1451 1453 1454 1455 1456 1455 1455 1455 1456 1456 1458 1460 1459
1478 1476 1473 1471 1468 1466 1464 1462 1460 1458 1455 1453 1450 1448 1447 1446 1445 1444 1444 1443 1442 1441 1441 1442 1442 1443 1443 1444 1446 1448 1448 1449 1451 1452 1452 1452 1452 1451 1454 1454 1454 1456 1456 1456
1478 1475 1473 1471 1468 1466 1463 1461 1458 1456 1454 1452 1451 1450 1448 1446 1445 1444 1441 1440 1440 1439 1438 1439 1439 1440 1441 1442 1444 1446 1447 1447 1448 1448 1449 1449 1448 1451 1452 1451 1452 1453 1453 1453
1477 1475 1472 1470 1468 1465 1463 1461 1458 1456 1454 1453 1451 1448 1446 1443 1441 1440 1439 1437 1436 1435 1435 1435 1436 1439 1440 1442 1443 1443 1443 1444 1445 1446 1446 1448 1449 1449 1449 1449 1450 1450 1450 1450
1476 1474 1471 1469 1467 1465 1463 1461 1459 1456 1454 1452 1449 1446 1444 1442 1439 1438 1436 1434 1434 1434 1434 1434 1435 1437 1438 1439 1439 1440 1442 1443 1443 1444 1446 1447 1446 1446 1446 1447 1448 1448 1448 1447
1476 1474 1472 1470 1467 1465 1462 1460 1458 1456 1454 1451 1449 1446 1443 1441 1439 1436 1435 1433 1433 1432 1433 1433 1434 1436 1436 1437 1438 1440 1441 1442 1443 1444 1445 1444 1444 1444 1445 1445 1445 1445 1445 1445